This is the latest recevied weather packets stored in our database for station/object KD5FHA. If no packets are shown the sender has not sent any weather packets the latest 10 day(s).
| Time | Temp. | Humidity | Pressure | Rain* | Wind** | Luminosity | Snow |
|---|---|---|---|---|---|---|---|
| 1777723767 | 8.33° C | 97% | 1021.3 hPa | 0 mm | - | 26 W/m² | - |
| 1777723462 | 8.33° C | 97% | 1021.1 hPa | 0 mm | - | 19 W/m² | - |
| 1777723160 | 7.78° C | 97% | 1021.2 hPa | 0 mm | - | 14 W/m² | - |
| 1777722857 | 7.78° C | 97% | 1021 hPa | 0 mm | - | 10 W/m² | - |
| 1777722553 | 7.78° C | 97% | 1020.7 hPa | 0 mm | - | 7 W/m² | - |
| 1777722250 | 8.33° C | 97% | 1020.7 hPa | 0 mm | - | 4 W/m² | - |
| 1777721947 | 7.78° C | 97% | 1020.6 hPa | 0 mm | - | 2 W/m² | - |
| 1777721645 | 7.78° C | 97% | 1020.6 hPa | 0 mm | - | 1 W/m² | - |
| 1777721343 | 7.78° C | 97% | 1020.4 hPa | 0 mm | - | 0 W/m² | - |
| 1777721040 | 8.33° C | 97% | 1020.3 hPa | 0 mm | - | 0 W/m² | - |
| 1777720737 | 8.33° C | 97% | 1020 hPa | 0 mm | - | 0 W/m² | - |
| 1777720434 | 8.33° C | 97% | 1020 hPa | 0 mm | - | 0 W/m² | - |
| 1777720132 | 8.33° C | 97% | 1020 hPa | 0 mm | - | 0 W/m² | - |
| 1777719830 | 8.33° C | 97% | 1020.1 hPa | 0 mm | - | 0 W/m² | - |
| 1777719527 | 8.33° C | 97% | 1020 hPa | 0 mm | - | 0 W/m² | - |
| 1777719224 | 8.33° C | 97% | 1019.9 hPa | 0 mm | - | 0 W/m² | - |
| 1777718922 | 8.33° C | 97% | 1020.1 hPa | 0 mm | - | 0 W/m² | - |
| 1777718619 | 8.33° C | 97% | 1019.9 hPa | 0 mm | - | 0 W/m² | - |
| 1777718316 | 8.33° C | 97% | 1019.8 hPa | 0 mm | - | 0 W/m² | - |
| 1777718013 | 8.89° C | 97% | 1019.7 hPa | 0 mm | - | 0 W/m² | - |
| 1777717710 | 8.33° C | 97% | 1019.9 hPa | 0 mm | - | 0 W/m² | - |
| 1777717407 | 8.33° C | 97% | 1019.8 hPa | 0 mm | - | 0 W/m² | - |
| 1777717104 | 8.33° C | 97% | 1019.8 hPa | 0 mm | - | 0 W/m² | - |
| 1777716802 | 8.89° C | 97% | 1019.8 hPa | 0 mm | - | 0 W/m² | - |
| 1777716501 | 8.89° C | 97% | 1020.1 hPa | 0 mm | - | 0 W/m² | - |
* Rain latest hour (hover to see other rain measurements)
** Current wind speed in m/s (hover to see current wind gust speed)